This demonstration page uses our WeatherBlox Daily Observations layout. Learn more.

38.89511, -77.03637

Hourly Observations for April 28, 2015

Temp ( °F °C ) Dew Point ( °F °C ) Humidity (%) Winds ( mph kmh ) Pressure ( in mb ) Visibility ( mi km ) Precip ( " mm )
12:52 am 00:52 Mostly Cloudy 52 11 36 2 54 54 NW 10 17 29.91 1013 10 16.09344 0 0
1:52 am 01:52 Mostly Cloudy 50 10 36 2 58 58 NW 13 20 29.91 1013 10 16.09344 0 0
2:52 am 02:52 Partly Cloudy 48 9 36 2 62 62 NW 15 24 29.88 1012 10 16.09344 0 0
3:52 am 03:52 Mostly Cloudy 48 9 36 2 62 62 NW 12 19 29.88 1012 10 16.09344 0 0
4:52 am 04:52 Partly Cloudy 48 9 36 2 62 62 NW 9 15 29.88 1012 10 16.09344 0 0
5:52 am 05:52 Mostly Cloudy 48 9 36 2 62 62 NNW 10 17 29.91 1013 10 16.09344 0 0
6:52 am 06:52 Partly Cloudy 50 10 36 2 58 58 WNW 8 13 29.91 1013 10 16.09344 0 0
7:52 am 07:52 Mostly Sunny 54 12 37 3 54 54 NW 12 19 29.94 1014 10 16.09344 0 0
8:52 am 08:52 Mostly Sunny 55 13 39 4 55 55 NNW 16 26 29.94 1014 10 16.09344 0 0
9:52 am 09:52 Sunny 59 15 41 5 51 51 NW 20 31 29.94 1014 10 16.09344 0 0
10:52 am 10:52 Mostly Sunny 63 17 43 6 49 49 NNW 16 26 29.94 1014 10 16.09344 0 0
11:52 am 11:52 Mostly Sunny 64 18 43 6 46 46 WNW 16 26 29.91 1013 10 16.09344 0 0
12:52 pm 12:52 Partly Cloudy 68 20 43 6 40 40 NNW 13 20 29.91 1013 10 16.09344 0 0
1:52 pm 13:52 Mostly Cloudy 70 21 41 5 35 35 N 16 26 29.88 1012 10 16.09344 0 0
2:52 pm 14:52 Mostly Cloudy 68 20 39 4 35 35 NNW 12 19 29.88 1012 10 16.09344 0 0
3:52 pm 15:52 Mostly Cloudy 70 21 43 6 38 38 NW 10 17 29.85 1011 10 16.09344 0 0
4:52 pm 16:52 Mostly Cloudy 70 21 39 4 33 33 NNW 15 24 29.85 1011 10 16.09344 0 0
5:52 pm 17:52 Mostly Cloudy 72 22 41 5 33 33 NW 9 15 29.83 1010 10 16.09344 0 0
6:52 pm 18:52 Mostly Sunny 70 21 39 4 33 33 NNW 13 20 29.83 1010 10 16.09344 0 0
7:52 pm 19:52 Mostly Sunny 68 20 39 4 35 35 NW 8 13 29.83 1010 10 16.09344 0 0
8:52 pm 20:52 Clear 66 19 39 4 37 37 W 6 9 29.83 1010 10 16.09344 0 0
9:52 pm 21:52 Clear 64 18 39 4 40 40 W 7 11 29.85 1011 10 16.09344 0 0
10:52 pm 22:52 Clear 64 18 39 4 40 40 W 9 15 29.85 1011 10 16.09344 0 0
11:52 pm 23:52 Clear 63 17 37 3 39 39 WNW 10 17 29.85 1011 10 16.09344 0 0

Powered by AerisWeather